CW2530 Weather Reports


Display with metric or nautical units.
time (UTC)temp
F
wind
direction
speed
MPH
gust
MPH
rain 1hr
in
rain 24hr
in
rain mn
in
humidity
%
barometer
mb
20181214013011 45 97 4.0 7.0 0.00 0.00 0.00 87 1028.5
20181214011511 45 102 4.0 8.0 0.00 0.00 0.00 87 1028.4
20181214010011 45 102 3.0 7.0 0.00 0.00 0.00 87 1028.4
20181214004511 45 103 3.0 6.0 0.00 0.00 0.00 86 1028.2
20181214003011 46 115 4.0 8.0 0.00 0.00 0.00 86 1028.1
20181214001511 46 115 4.0 8.0 0.00 0.00 0.00 86 1027.9
20181214000012 46 115 5.0 10.0 0.00 0.00 0.00 86 1027.8
20181213234511 46 99 5.0 11.0 0.00 0.00 0.00 86 1027.7
20181213233011 46 128 7.0 12.0 0.00 0.00 0.00 86 1027.2
20181213231511 46 122 7.0 13.0 0.00 0.00 0.00 85 1027.2
20181213230011 46 121 7.0 11.0 0.00 0.00 0.00 85 1027.3
20181213224511 45 114 6.0 11.0 0.00 0.00 0.00 85 1027.3
20181213223011 45 102 5.0 10.0 0.00 0.00 0.00 85 1027.4
20181213221511 45 94 5.0 9.0 0.00 0.00 0.00 84 1027.2
20181213220011 45 96 5.0 9.0 0.00 0.00 0.00 84 1027.3
20181213214511 45 98 4.0 8.0 0.00 0.00 0.00 83 1027.4
20181213213011 46 97 3.0 8.0 0.00 0.00 0.00 83 1027.4
20181213211511 46 88 2.0 4.0 0.00 0.00 0.00 82 1027.5
20181213210011 47 95 2.0 4.0 0.00 0.00 0.00 81 1027.4
20181213204511 47 108 3.0 6.0 0.00 0.00 0.00 80 1027.1
20181213203011 47 123 3.0 7.0 0.00 0.00 0.00 80 1027.0
20181213201510 48 134 4.0 8.0 0.00 0.00 0.00 78 1026.9
20181213200011 49 144 3.0 7.0 0.00 0.00 0.00 77 1026.8
20181213194511 49 137 4.0 8.0 0.00 0.00 0.00 77 1026.6
20181213193011 49 145 5.0 9.0 0.00 0.00 0.00 76 1026.4
20181213191511 49 145 5.0 10.0 0.00 0.00 0.00 77 1026.2
20181213190011 48 152 5.0 11.0 0.00 0.00 0.00 79 1025.9
20181213184511 47 154 5.0 13.0 0.00 0.00 0.00 79 1025.7
20181213183011 47 160 7.0 13.0 0.00 0.00 0.00 78 1025.7
20181213181511 48 158 4.0 10.0 0.00 0.00 0.00 77 1025.9
20181213180011 47 148 5.0 11.0 0.00 0.00 0.00 77 1026.0
20181213174511 47 161 6.0 12.0 0.00 0.00 0.00 76 1026.1
20181213173010 47 162 6.0 13.0 0.00 0.00 0.00 76 1026.1
20181213171511 47 161 6.0 12.0 0.00 0.00 0.00 76 1026.2
20181213170010 47 146 6.0 12.0 0.00 0.00 0.00 77 1026.2
20181213164511 46 151 7.0 12.0 0.00 0.00 0.00 76 1026.2
20181213163011 46 149 6.0 15.0 0.00 0.00 0.00 75 1026.3
20181213161511 46 157 7.0 17.0 0.00 0.00 0.00 76 1026.5
20181213160010 46 164 7.0 14.0 0.00 0.00 0.00 76 1026.6
20181213154511 46 155 6.0 17.0 0.00 0.00 0.00 76 1026.7
20181213153011 46 163 7.0 14.0 0.00 0.00 0.00 76 1026.7
20181213151511 46 170 8.0 15.0 0.00 0.00 0.00 73 1026.7
20181213150010 46 176 8.0 14.0 0.00 0.00 0.00 72 1026.7
20181213144511 46 175 9.0 16.0 0.00 0.00 0.00 71 1026.6
20181213143011 46 177 9.0 16.0 0.00 0.00 0.00 72 1026.5
20181213141511 45 173 8.0 14.0 0.00 0.00 0.00 71 1026.5
20181213140011 45 177 9.0 16.0 0.00 0.00 0.00 70 1026.2
20181213134510 45 176 9.0 16.0 0.00 0.00 0.00 69 1026.0
20181213133011 45 179 9.0 16.0 0.00 0.00 0.00 70 1025.8
20181213131510 45 177 8.0 14.0 0.00 0.00 0.00 71 1025.6
20181213130010 45 177 10.0 15.0 0.00 0.00 0.00 72 1025.4
20181213124510 45 177 9.0 15.0 0.00 0.00 0.00 72 1025.3
20181213123011 45 177 9.0 15.0 0.00 0.00 0.00 73 1025.2
20181213121510 44 183 7.0 14.0 0.00 0.00 0.00 73 1025.1
20181213120010 44 190 7.0 13.0 0.00 0.00 0.00 74 1024.9
20181213114511 44 190 6.0 12.0 0.00 0.00 0.00 73 1024.8
20181213113010 44 184 5.0 10.0 0.00 0.00 0.00 73 1024.7
20181213111510 44 163 5.0 11.0 0.00 0.00 0.00 73 1024.6
20181213110010 44 167 6.0 11.0 0.00 0.00 0.00 72 1024.5
20181213104510 44 165 6.0 14.0 0.00 0.00 0.00 72 1024.3
20181213103011 44 173 7.0 12.0 0.00 0.00 0.00 71 1024.0
20181213101510 44 175 6.0 11.0 0.00 0.00 0.00 71 1024.0
20181213100011 43 167 5.0 12.0 0.00 0.00 0.00 70 1024.0
20181213094510 43 163 6.0 12.0 0.00 0.00 0.00 71 1023.8
20181213093011 43 167 5.0 11.0 0.00 0.00 0.00 69 1023.7
20181213091510 43 173 4.0 9.0 0.00 0.00 0.00 69 1023.8
20181213090010 43 175 5.0 9.0 0.00 0.00 0.00 69 1023.7
20181213084510 42 173 5.0 10.0 0.00 0.00 0.00 68 1023.6
20181213083010 42 171 4.0 8.0 0.00 0.00 0.00 67 1023.7
20181213081510 42 171 4.0 8.0 0.00 0.00 0.00 67 1023.9
20181213080010 42 169 5.0 10.0 0.00 0.00 0.00 67 1023.6
20181213074510 42 178 4.0 6.0 0.00 0.00 0.00 66 1023.7
20181213073010 42 175 3.0 6.0 0.00 0.00 0.00 65 1023.8
20181213071511 42 177 4.0 7.0 0.00 0.00 0.00 64 1023.6
20181213070010 42 172 3.0 5.0 0.00 0.00 0.00 66 1023.5
20181213064510 41 179 3.0 5.0 0.00 0.00 0.00 66 1023.5
20181213063010 41 176 2.0 4.0 0.00 0.00 0.00 65 1023.6
20181213061510 42 191 3.0 6.0 0.00 0.00 0.00 65 1023.2
20181213060010 41 197 3.0 7.0 0.00 0.00 0.00 66 1023.1
20181213054510 40 197 3.0 7.0 0.00 0.00 0.00 70 1023.0
20181213053011 38 174 2.0 4.0 0.00 0.00 0.00 75 1023.1
20181213051510 36 146 0.0 1.0 0.00 0.00 0.00 80 1023.1
20181213050012 36 146 0.0 1.0 0.00 0.00 0.00 78 1023.1
20181213044510 38 142 1.0 2.0 0.00 0.00 0.00 75 1023.0
20181213043010 39 135 1.0 3.0 0.00 0.00 0.00 73 1022.8
20181213041510 38 130 1.0 3.0 0.00 0.00 0.00 75 1022.6
20181213040010 38 0 0.0 0.0 0.00 0.00 0.00 76 1022.6
20181213034511 38 130 0.0 1.0 0.00 0.00 0.00 77 1022.6
20181213033010 37 112 2.0 4.0 0.00 0.00 0.00 79 1022.3
20181213031510 36 90 2.0 3.0 0.00 0.00 0.00 76 1022.3
20181213030010 35 72 2.0 3.0 0.00 0.00 0.00 74 1022.4
20181213024510 35 72 1.0 2.0 0.00 0.00 0.00 74 1022.5
20181213023010 35 68 2.0 3.0 0.00 0.00 0.00 73 1022.5
20181213021510 35 41 2.0 3.0 0.00 0.00 0.00 72 1022.5
20181213020009 36 42 2.0 3.0 0.00 0.00 0.00 71 1022.5
20181213014510 36 45 2.0 3.0 0.00 0.00 0.00 70 1022.4